Theta_e
336 337 338 339 339 340 340 339 339 340 340 340 340 340 339 338 340 340 340 338 337 337 338 338 340 339 340 340 340 339 335 333 333 335 335 337 338 339 339 338 338 338 340
335 338 338 338 339 339 339 339 338 337 338 337 339 339 338 337 340 338 337 338 338 337 337 337 338 340 340 338 338 337 337 336 335 334 334 336 337 338 338 337 338 339 337
337 337 337 338 337 338 338 335 335 337 335 334 335 337 336 334 335 338 337 335 336 336 335 336 337 338 336 334 335 336 337 337 337 335 336 336 337 338 338 336 337 338 336
337 337 337 337 335 334 334 333 334 334 334 334 333 335 334 334 335 335 335 336 335 333 326 325 331 334 332 331 333 335 335 336 335 334 335 336 337 338 338 338 337 337 336
336 337 337 336 333 333 332 333 334 334 334 333 334 334 334 334 333 334 334 333 329 326 325 323 328 332 330 332 334 333 331 330 333 334 334 335 335 336 336 335 336 336 335
336 336 336 336 334 332 333 333 334 333 333 334 333 333 334 333 334 334 329 326 326 326 325 325 324 327 330 331 333 331 330 329 327 329 331 332 332 333 333 333 333 333 333
336 336 336 336 334 332 333 333 334 335 335 333 335 333 334 333 333 332 328 327 326 325 325 325 324 324 329 330 331 330 329 329 330 332 333 333 333 332 332 332 332 332 332
336 335 336 336 335 332 332 332 333 333 333 332 334 333 333 332 330 327 327 327 326 325 325 325 325 324 329 330 330 330 329 330 330 331 331 331 332 332 331 331 330 330 330
335 335 335 335 335 335 332 331 332 332 332 331 332 332 329 327 328 326 325 326 326 326 326 326 325 325 325 328 328 328 328 328 327 328 329 327 330 331 330 330 329 328 328
335 334 334 335 334 334 333 332 331 329 328 328 330 330 325 326 325 325 325 325 325 325 325 326 326 325 324 327 326 327 327 327 327 327 326 323 326 329 327 325 326 326 326
334 333 333 333 334 334 334 332 331 329 327 327 327 326 327 327 325 325 325 325 325 325 326 327 328 328 327 326 326 326 327 327 326 326 325 321 322 325 323 319 320 324 325
335 334 332 331 331 333 333 332 331 329 327 329 329 328 327 327 325 325 325 326 326 326 326 326 326 326 326 326 324 323 324 325 325 325 323 321 319 322 321 318 316 318 320
333 333 332 331 330 332 333 332 331 329 328 329 328 328 327 327 325 325 324 325 325 325 324 325 324 323 324 323 323 322 321 321 322 322 321 320 320 319 319 318 316 316 320
332 332 332 332 331 331 330 329 329 330 328 328 327 327 329 327 325 325 325 325 324 324 324 323 322 321 321 320 319 319 319 320 319 320 320 320 320 317 315 316 315 315 316
330 331 332 332 332 330 329 330 329 329 329 328 327 327 327 326 326 325 325 324 324 323 323 323 322 320 319 318 315 317 316 316 317 318 318 318 318 316 316 313 312 314 316
332 332 333 332 331 330 329 329 327 328 327 327 327 327 326 326 325 324 325 324 324 323 323 322 321 320 317 316 314 313 313 313 313 313 314 316 316 316 315 315 313 311 312
333 333 333 331 329 329 328 327 328 327 327 328 328 327 326 326 325 323 325 325 325 325 322 323 321 319 316 314 313 312 311 310 309 310 312 313 314 315 315 314 314 313 313
332 332 332 331 330 329 327 328 328 328 328 328 328 326 327 325 323 324 324 324 323 324 323 322 320 318 316 314 313 312 311 310 310 309 309 310 311 311 312 312 312 312 312
331 332 332 330 330 329 328 328 328 327 327 327 327 326 325 325 324 324 324 323 323 323 322 321 319 317 315 314 314 314 313 312 311 310 310 309 309 309 309 309 311 310 310
332 331 331 331 330 329 328 329 328 327 327 327 326 326 326 324 324 323 323 323 323 321 320 319 318 316 315 315 315 315 312 311 310 311 310 309 308 308 308 308 308 309 309
332 331 327 331 331 330 330 329 328 327 326 326 326 324 323 323 324 324 324 323 321 321 320 319 318 317 316 316 315 315 312 310 310 311 313 312 309 309 310 310 309 309 310
332 330 328 328 331 330 330 329 328 326 326 325 325 323 324 324 325 325 324 322 321 320 319 318 318 317 316 315 314 311 307 311 311 310 312 311 311 311 312 312 312 312 310
331 331 330 328 330 330 330 328 327 325 326 326 325 324 325 327 326 324 323 321 319 319 318 317 316 315 315 315 314 312 310 309 308 312 311 311 311 311 310 310 310 311 311
330 331 331 328 330 330 329 328 327 326 326 326 326 326 327 326 324 323 321 319 318 318 317 316 316 315 315 314 314 314 313 312 308 309 311 310 310 309 309 309 309 308 307
322 328 330 329 329 329 329 328 327 327 326 326 326 326 325 323 322 321 319 318 317 316 315 315 315 314 314 313 312 311 311 310 311 309 307 308 308 307 307 305 304 304 305
317 321 329 330 329 329 329 328 327 327 326 326 325 324 322 321 319 318 318 317 316 314 312 311 311 311 312 310 310 309 309 309 309 309 307 306 306 305 303 304 302 301 300
Wind_Speed
18 19 18 16 18 17 18 18 19 20 20 21 20 21 21 23 23 23 23 23 24 22 21 21 20 20 21 21 21 22 23 22 21 20 20 20 19 19 20 20 21 21 21
24 20 19 18 18 18 20 20 20 21 22 21 20 20 21 20 23 23 23 22 21 20 21 20 20 19 20 20 18 17 17 20 21 20 19 19 18 19 19 19 20 20 20
26 23 19 20 19 20 20 20 18 20 22 22 22 20 21 21 19 21 21 20 20 20 20 20 20 19 21 20 18 17 16 18 18 19 18 18 18 18 18 18 19 19 18
27 25 22 21 21 21 20 21 19 20 21 21 21 21 20 20 19 19 19 18 19 20 21 21 20 20 20 19 17 19 19 19 17 18 20 20 19 19 19 19 18 18 18
27 25 23 22 22 22 21 21 22 22 21 20 20 20 20 19 18 17 18 18 18 19 20 20 19 18 19 20 20 19 19 17 16 19 20 20 18 17 18 17 17 18 17
26 25 23 22 22 22 21 21 21 20 20 20 19 19 19 18 17 17 17 17 17 17 17 17 17 16 17 19 19 15 16 17 16 16 18 17 17 15 16 16 16 15 15
26 25 23 22 21 21 20 20 20 20 19 20 19 18 17 17 16 16 16 16 16 15 15 15 16 15 15 17 16 15 12 12 14 17 18 17 15 14 14 14 13 13 13
27 25 22 21 21 21 20 19 19 19 20 19 19 17 16 15 15 14 14 14 14 14 14 14 14 14 14 15 16 14 11 12 14 13 13 13 11 11 10 10 10 10 10
26 25 23 22 21 21 20 19 18 19 19 18 19 15 14 14 13 13 13 13 12 13 13 13 14 13 13 12 11 9 9 7 8 10 9 8 9 9 9 9 9 9 9
26 25 24 22 21 21 20 20 18 17 17 17 16 14 13 13 12 11 12 12 12 12 12 12 13 13 11 11 12 11 6 7 7 7 7 6 7 8 8 8 8 8 8
25 24 23 23 22 22 21 19 18 17 17 17 16 14 13 12 11 10 12 13 13 12 11 11 9 8 8 9 9 11 8 5 5 6 8 6 6 6 6 6 6 6 6
27 25 24 23 22 22 21 20 18 18 17 18 16 14 10 10 11 11 12 12 12 11 9 8 8 7 8 6 6 7 6 3 4 6 7 7 6 4 5 6 6 5 5
26 26 25 24 23 23 22 20 19 17 18 16 13 10 10 7 10 11 10 9 8 6 6 5 6 6 6 4 3 3 4 4 2 3 5 6 6 6 5 6 5 5 4
28 27 27 26 25 22 21 20 19 19 18 15 11 10 9 10 7 7 7 5 6 6 6 7 6 6 4 3 3 1 2 3 3 2 3 3 6 7 6 5 5 5 5
27 27 26 26 26 22 22 21 19 17 14 11 10 9 9 7 8 7 7 7 7 6 5 3 3 3 2 2 3 3 4 5 6 5 4 5 6 8 7 7 7 7 7
28 28 26 27 21 18 18 17 16 15 14 14 14 11 8 8 8 7 8 6 4 1 2 2 2 4 3 3 3 4 4 5 4 6 7 7 7 7 8 9 8 9 9
32 30 29 26 22 20 18 17 17 15 15 15 14 12 11 9 8 6 5 3 3 1 0 1 2 4 4 4 5 5 6 6 7 6 7 8 8 8 10 10 11 11 11
33 31 29 27 24 21 19 18 18 18 16 16 12 12 11 9 8 7 5 5 2 1 0 1 3 3 5 7 9 8 9 10 9 7 7 8 8 9 10 12 13 14 15
34 31 29 29 27 24 20 19 19 17 16 15 14 14 11 9 8 7 6 6 4 2 0 1 3 5 8 9 10 11 10 9 7 4 4 6 8 10 12 13 14 16 17
33 31 31 29 28 24 23 20 19 17 16 14 13 13 12 10 10 8 8 6 3 2 2 1 4 5 6 11 13 11 7 6 3 2 5 7 8 9 12 13 15 18 19
34 30 33 32 28 28 26 24 20 18 16 15 16 12 12 12 11 11 8 5 3 2 1 3 4 6 5 12 10 11 6 9 9 9 9 7 7 10 15 16 19 21 21
35 30 31 35 29 31 29 25 23 20 18 17 15 14 14 12 11 10 7 5 3 1 1 2 4 4 5 10 8 4 4 4 3 8 14 6 10 14 18 17 20 22 22
33 33 32 36 33 32 29 24 23 21 18 19 19 16 17 14 11 10 8 6 3 1 1 2 3 4 5 6 9 5 3 2 9 7 6 7 21 20 24 22 23 24 25
34 34 34 37 36 33 30 29 30 27 24 21 22 21 18 14 13 12 9 7 5 3 1 1 2 3 4 7 5 7 5 3 2 4 8 20 12 23 21 21 22 25 25
25 33 34 35 36 34 33 32 31 27 27 23 22 21 18 15 14 12 10 8 5 3 3 3 2 2 4 5 6 5 5 7 3 4 5 8 19 17 15 22 22 21 22
18 20 30 34 35 34 34 32 31 31 28 27 25 23 19 17 14 12 11 8 5 3 3 4 5 5 6 6 5 5 5 3 7 5 4 15 20 13 28 11 17 21 22
Wind_Direction
150 141 136 124 120 111 110 107 101 103 100 96 90 88 88 86 82 84 82 81 79 76 76 79 82 83 83 80 79 79 77 76 78 76 76 77 77 76 77 78 76 74 70
146 142 135 125 123 116 114 110 105 103 98 95 93 91 89 88 82 85 82 80 80 79 78 79 83 83 79 75 75 77 79 78 79 78 74 72 74 77 77 78 77 73 67
143 142 138 133 128 126 118 111 112 104 100 97 96 94 90 91 89 83 82 79 77 74 73 76 84 86 82 74 73 81 80 89 77 74 74 73 75 78 77 74 72 70 68
145 143 141 139 130 125 125 120 117 108 102 101 100 99 96 97 94 90 87 85 81 79 80 84 89 88 79 68 75 83 82 84 79 77 78 77 74 73 73 72 73 72 69
146 146 143 140 133 127 126 125 118 112 109 106 104 102 101 98 95 92 90 88 85 82 82 84 90 90 82 76 86 88 81 72 81 81 79 76 74 68 67 67 70 66 63
148 147 145 142 138 133 127 123 118 119 117 112 108 106 103 100 98 93 93 90 88 87 86 87 91 93 87 80 90 81 77 72 75 84 79 74 70 68 67 65 65 65 64
150 148 148 145 139 139 137 131 130 124 119 116 114 110 110 106 104 99 96 93 90 88 89 90 90 92 90 83 91 78 72 67 73 81 83 79 71 66 65 62 62 61 60
150 150 148 146 143 139 136 136 133 127 125 125 120 119 115 110 106 101 97 93 89 87 87 89 90 90 93 89 87 82 83 80 77 79 81 79 73 64 63 59 59 54 51
151 151 151 149 146 143 140 137 136 131 130 128 124 127 116 114 107 101 96 92 88 87 86 86 86 87 88 89 69 67 80 93 63 74 69 61 66 61 56 53 49 49 49
153 152 150 149 149 148 144 143 140 135 132 130 131 127 114 103 98 98 96 92 89 86 85 86 88 84 83 78 56 62 89 99 72 62 38 36 49 57 48 41 40 38 39
153 154 155 153 152 151 150 148 144 139 137 134 131 123 114 101 90 97 98 96 92 89 87 86 79 78 77 67 62 53 65 86 64 20 10 21 22 35 26 21 25 35 41
159 158 158 158 158 157 155 153 150 146 142 139 134 125 114 109 90 103 104 104 97 86 81 76 64 60 63 74 57 49 52 64 16 10 9 6 2 6 3 5 10 11 13
161 163 164 161 161 161 159 158 156 153 148 142 138 134 135 139 122 113 102 96 88 80 76 95 75 68 71 66 55 53 33 39 33 348 354 350 356 348 338 346 355 359 5
168 168 170 169 165 164 159 161 158 157 154 149 147 153 151 145 138 142 113 123 108 98 95 86 83 67 75 50 26 8 10 342 351 314 314 324 340 345 332 319 327 330 328
173 177 177 175 171 168 163 164 160 168 162 163 163 165 163 157 146 153 119 114 109 105 89 62 29 6 336 342 347 309 315 309 308 313 306 308 320 328 333 319 314 317 317
172 174 181 177 173 176 177 175 180 174 177 177 175 173 171 160 147 146 127 126 123 80 23 49 42 23 7 360 350 337 327 320 315 302 301 297 306 317 324 326 322 318 312
174 171 174 181 182 182 181 182 188 186 183 181 171 173 159 162 157 175 166 144 133 59 186 27 10 351 334 337 333 327 321 306 303 299 298 299 308 299 313 315 318 318 318
176 173 176 177 179 184 187 188 186 180 185 173 170 166 165 172 178 172 189 142 159 231 71 18 338 343 350 342 333 330 320 309 303 300 300 303 303 301 303 310 315 318 316
183 179 178 179 184 185 185 185 179 171 169 166 170 173 172 165 172 175 169 162 208 191 191 358 10 356 345 342 335 329 325 307 299 300 315 317 312 313 315 314 314 319 322
193 194 191 184 187 189 187 181 170 170 174 176 180 179 182 187 191 181 167 158 187 171 107 50 347 360 354 345 336 335 356 13 13 7 343 342 342 346 338 331 328 325 321
199 198 198 185 185 187 182 181 183 180 176 178 177 186 186 186 193 195 195 187 167 179 55 17 0 0 0 357 347 356 30 55 92 3 328 333 4 1 360 345 334 329 322
194 196 190 191 187 188 190 189 192 183 177 180 185 186 187 196 189 196 192 170 147 116 92 7 11 8 15 21 7 360 3 352 331 69 15 15 19 346 344 343 343 339 335
191 192 190 191 190 190 191 186 181 181 173 175 183 181 185 191 188 188 181 177 181 169 33 18 19 26 24 34 28 40 17 325 337 337 15 37 346 339 333 333 330 324 322
191 194 192 191 193 192 190 185 183 183 171 174 174 174 173 183 185 183 183 182 178 168 150 99 38 29 32 31 46 22 29 7 333 326 329 311 328 334 333 334 333 329 330
172 189 193 195 195 193 191 191 189 188 188 180 176 174 176 176 179 180 180 176 177 155 116 104 82 49 39 49 47 31 33 1 13 307 300 322 324 326 326 322 324 327 326
165 172 189 193 198 196 193 195 196 194 189 173 173 174 174 171 170 173 178 179 169 147 121 102 90 82 78 71 56 41 20 358 328 317 302 317 317 324 320 331 330 324 327